Home > Weather > Gitarama > Past weeks

Flag for Rwanda Weather for the Past 2 Weeks in Gitarama, Rwanda

Now
77 °F

Scattered clouds.


Feels Like: 79 °F
Forecast: 61 / 75 °F
Wind: 6 mph from Southeast

Location: Kigali Airport

Current Time: May 6, 2016 at 3:35:57 PM

Latest Report: May 6, 2016 at 3:00 PM


Visibility: N/A

Pressure: 30.07 "Hg (24.26 "Hg at 1872m altitude)

Humidity: 61%

Dew Point: 63 °F

Location of GitaramaLocation

Historic Weather in Gitarama — Graph

°F

Gitarama Temperature Yesterday

Maximum temperature yesterday: 79 °F (at 1:30 PM)
Minimum temperature yesterday: 64 °F (at 5:30 AM)
Average temperature yesterday: 73 °F

High & Low Weather Summary for the Past Weeks

 TemperatureHumidityPressure
High84 °F (Apr 22, 2:00 PM)100% (Apr 23, 3:30 AM)30.21 "Hg (Apr 23, 3:30 AM)
Low61 °F (May 2, 7:00 AM)48% (Apr 21, 2:30 PM)29.98 "Hg (Apr 23, 3:30 PM)
Average71 °F81%30.11 "Hg
* Reported Apr 21 2:30 PM — May 6 1:30 PM, Gitarama, Weather by CustomWeather, © 2016

Note: Actual official high and low records may vary slightly from our data, if they occured in-between our weather recording intervals... More about our weather records

Advertising

Gitarama Weather History for the Previous 24 Hours

Scroll right to see more
 ConditionsComfort  
Time TempWeatherWind HumidityBarometerVisibility
1:30 PM
Fri, May 6
75 °FScattered clouds.7 mph69%30.12 "HgN/A
12:30 PM75 °FPartly sunny.8 mph65%30.15 "HgN/A
12:00 PM75 °FPartly sunny.9 mph69%30.18 "HgN/A
11:00 AM73 °FBroken clouds.12 mph78%30.21 "HgN/A
10:30 AM73 °FBroken clouds.12 mph78%30.21 "HgN/A
10:00 AM73 °FPartly sunny.10 mph78%30.21 "HgN/A
9:00 AM73 °FScattered clouds.3 mph74%30.21 "HgN/A
8:30 AM73 °FScattered clouds.2 mph78%30.21 "HgN/A
8:00 AM72 °FScattered clouds.3 mph83%30.21 "HgN/A
7:30 AM68 °FScattered clouds.2 mph88%30.18 "HgN/A
7:00 AM66 °FScattered clouds.3 mph88%30.18 "HgN/A
6:30 AM64 °FScattered clouds.2 mph94%30.15 "HgN/A
7:00 PM
Thu, May 5
73 °FPassing clouds.6 mph65%30.12 "HgN/A
6:30 PM73 °FPassing clouds.7 mph65%30.09 "HgN/A
5:30 PM75 °FScattered clouds.8 mph65%30.07 "HgN/A
5:00 PM79 °FScattered clouds.6 mph58%30.07 "HgN/A
3:30 PM75 °FScattered clouds.5 mph61%30.07 "HgN/A
3:00 PM79 °FScattered clouds.5 mph54%30.07 "HgN/A
Weather by CustomWeather, © 2016

See weather overviewHow to use our weather pages